| time (UTC) | temp F | wind direction | speed MPH | gust MPH | rain 1hr in | rain 24hr in | rain mn in | humidity % | barometer mb |
| 20260902070551 | 61 | 210 | 5.0 | 12.0 | 0.00 | 0.02 | 0.01 | 82 | 1020.3 |
| 20260902070105 | 61 | 243 | 7.0 | 12.0 | 0.00 | 0.02 | 0.01 | 83 | 1020.3 |
| 20260902065552 | 60 | 213 | 6.0 | 9.0 | 0.01 | 0.01 | 0.01 | 84 | 1020.2 |
| 20260902065052 | 60 | 220 | 4.0 | 9.0 | 0.01 | 0.01 | 0.01 | 85 | 1020.1 |
| 20260902064938 | 59 | 199 | 5.0 | 10.0 | 0.01 | 0.01 | 0.01 | 85 | 1020.2 |
| 20260902064053 | 59 | 202 | 6.0 | 10.0 | 0.01 | 0.01 | 0.01 | 86 | 1020.1 |
| 20260902063552 | 59 | 224 | 6.0 | 7.0 | 0.01 | 0.01 | 0.01 | 86 | 1020.2 |
| 20260902063054 | 59 | 200 | 6.0 | 7.0 | 0.01 | 0.01 | 0.01 | 88 | 1020.2 |
| 20260902062554 | 58 | 213 | 3.0 | 6.0 | 0.01 | 0.01 | 0.01 | 88 | 1020.2 |
| 20260902062051 | 58 | 219 | 4.0 | 6.0 | 0.01 | 0.01 | 0.01 | 89 | 1020.2 |
| 20260902061552 | 57 | 196 | 4.0 | 5.0 | 0.01 | 0.01 | 0.01 | 89 | 1020.1 |
| 20260902061426 | 0 | 189 | 2.0 | 5.0 | 0.01 | 0.01 | 0.01 | 1020.2 | |
| 20260902060550 | 56 | 227 | 3.0 | 5.0 | 0.01 | 0.01 | 0.01 | 89 | 1020.2 |
| 20260902060454 | 56 | 199 | 3.0 | 5.0 | 0.01 | 0.01 | 0.00 | 89 | 1020.1 |
| 20260902055549 | 56 | 202 | 3.0 | 4.0 | 0.00 | 0.01 | 0.00 | 90 | 1020.1 |
| 20260902055049 | 56 | 214 | 2.0 | 4.0 | 0.00 | 0.01 | 0.00 | 90 | 1020.1 |
| 20260902054933 | 55 | 214 | 3.0 | 4.0 | 0.00 | 0.01 | 0.00 | 90 | 1020.1 |
| 20260902054049 | 55 | 202 | 3.0 | 5.0 | 0.00 | 0.01 | 0.00 | 90 | 1020.0 |
| 20260902053550 | 55 | 199 | 3.0 | 5.0 | 0.00 | 0.01 | 0.00 | 90 | 1019.8 |
| 20260902053050 | 55 | 196 | 3.0 | 5.0 | 0.00 | 0.01 | 0.00 | 90 | 1019.8 |
| 20260902052937 | 55 | 214 | 3.0 | 5.0 | 0.00 | 0.01 | 0.00 | 90 | 1019.9 |
| 20260902052048 | 55 | 212 | 3.0 | 4.0 | 0.00 | 0.01 | 0.00 | 90 | 1019.9 |
| 20260902051549 | 55 | 210 | 2.0 | 4.0 | 0.00 | 0.01 | 0.00 | 90 | 1019.8 |
| 20260902051050 | 54 | 219 | 2.0 | 3.0 | 0.00 | 0.01 | 0.00 | 90 | 1019.9 |
| 20260902050547 | 54 | 223 | 2.0 | 4.0 | 0.00 | 0.01 | 0.00 | 90 | 1019.8 |
| 20260902050456 | 54 | 223 | 2.0 | 4.0 | 0.00 | 0.01 | 0.00 | 90 | 1019.7 |
| 20260902045547 | 54 | 261 | 0.0 | 4.0 | 0.00 | 0.01 | 0.00 | 90 | 1019.7 |
| 20260902045049 | 54 | 269 | 0.0 | 0.0 | 0.00 | 0.01 | 0.00 | 89 | 1019.7 |
| 20260902044548 | 54 | 269 | 0.0 | 0.0 | 0.00 | 0.01 | 0.00 | 89 | 1019.8 |
| 20260902044050 | 54 | 269 | 0.0 | 0.0 | 0.00 | 0.01 | 0.00 | 89 | 1019.8 |
| 20260902043927 | 54 | 269 | 0.0 | 0.0 | 0.00 | 0.01 | 0.00 | 89 | 1019.8 |
| 20260902043047 | 54 | 269 | 0.0 | 0.0 | 0.00 | 0.01 | 0.00 | 89 | 1019.7 |
| 20260902042548 | 54 | 271 | 0.0 | 0.0 | 0.00 | 0.01 | 0.00 | 89 | 1019.7 |
| 20260902042428 | 54 | 271 | 0.0 | 0.0 | 0.00 | 0.01 | 0.00 | 89 | 1019.7 |
| 20260902041927 | 54 | 271 | 0.0 | 0.0 | 0.00 | 0.01 | 0.00 | 89 | 1019.7 |
| 20260902041436 | 54 | 272 | 0.0 | 0.0 | 0.00 | 0.01 | 0.00 | 89 | 1019.7 |
| 20260902040854 | 54 | 271 | 0.0 | 0.0 | 0.00 | 0.01 | 0.00 | 89 | 1019.7 |
| 20260902040731 | 54 | 271 | 0.0 | 0.0 | 0.00 | 0.01 | 0.00 | 89 | 1019.7 |
| 20260902035832 | 55 | 281 | 0.0 | 0.0 | 0.00 | 0.01 | 0.00 | 89 | 1019.7 |
| 20260902035716 | 54 | 272 | 0.0 | 0.0 | 0.00 | 0.01 | 0.00 | 89 | 1019.7 |
| 20260902034548 | 55 | 281 | 0.0 | 0.0 | 0.00 | 0.01 | 0.00 | 89 | 1019.8 |
| 20260902034047 | 55 | 281 | 0.0 | 0.0 | 0.00 | 0.01 | 0.00 | 88 | 1019.8 |
| 20260902033937 | 55 | 281 | 0.0 | 0.0 | 0.00 | 0.01 | 0.00 | 88 | 1019.8 |
| 20260902033047 | 55 | 281 | 0.0 | 0.0 | 0.00 | 0.01 | 0.00 | 88 | 1019.8 |
| 20260902032548 | 55 | 281 | 0.0 | 0.0 | 0.00 | 0.01 | 0.00 | 88 | 1019.9 |
| 20260902032047 | 55 | 281 | 0.0 | 0.0 | 0.00 | 0.01 | 0.00 | 88 | 1019.8 |
| 20260902031547 | 55 | 281 | 0.0 | 0.0 | 0.00 | 0.01 | 0.00 | 88 | 1019.8 |
| 20260902031046 | 55 | 281 | 0.0 | 0.0 | 0.00 | 0.01 | 0.00 | 88 | 1019.9 |
| 20260902030545 | 55 | 281 | 0.0 | 0.0 | 0.00 | 0.01 | 0.00 | 88 | 1019.9 |
| 20260902030058 | 56 | 281 | 0.0 | 0.0 | 0.00 | 0.01 | 0.00 | 88 | 1020.0 |
| 20260902025546 | 56 | 281 | 0.0 | 0.0 | 0.00 | 0.01 | 0.00 | 88 | 1019.9 |
| 20260902025046 | 56 | 281 | 0.0 | 0.0 | 0.00 | 0.01 | 0.00 | 88 | 1020.0 |
| 20260902024544 | 55 | 281 | 0.0 | 1.0 | 0.00 | 0.01 | 0.00 | 88 | 1020.0 |
| 20260902024046 | 55 | 281 | 0.0 | 3.0 | 0.00 | 0.01 | 0.00 | 88 | 1019.9 |
| 20260902023546 | 56 | 281 | 2.0 | 3.0 | 0.00 | 0.01 | 0.00 | 89 | 1020.0 |
| 20260902023046 | 55 | 281 | 2.0 | 3.0 | 0.00 | 0.01 | 0.00 | 89 | 1020.0 |
| 20260902022545 | 55 | 282 | 1.0 | 3.0 | 0.00 | 0.01 | 0.00 | 89 | 1020.1 |
| 20260902022044 | 55 | 282 | 1.0 | 2.0 | 0.00 | 0.01 | 0.00 | 89 | 1020.0 |
| 20260902021545 | 55 | 282 | 1.0 | 2.0 | 0.00 | 0.01 | 0.00 | 88 | 1020.1 |
| 20260902021045 | 55 | 282 | 0.0 | 2.0 | 0.00 | 0.01 | 0.00 | 88 | 1020.1 |
| 20260902020545 | 55 | 282 | 0.0 | 2.0 | 0.00 | 0.01 | 0.00 | 88 | 1020.2 |
| 20260902020058 | 55 | 282 | 0.0 | 1.0 | 0.00 | 0.01 | 0.00 | 88 | 1020.2 |
| 20260902015546 | 55 | 282 | 0.0 | 0.0 | 0.00 | 0.01 | 0.00 | 88 | 1020.2 |
| 20260902015044 | 55 | 282 | 0.0 | 2.0 | 0.00 | 0.01 | 0.00 | 88 | 1020.2 |
| 20260902014934 | 56 | 282 | 0.0 | 2.0 | 0.00 | 0.01 | 0.00 | 88 | 1020.1 |
| 20260902014429 | 56 | 282 | 1.0 | 3.0 | 0.00 | 0.01 | 0.00 | 88 | 1020.2 |
| 20260902013546 | 56 | 282 | 2.0 | 3.0 | 0.00 | 0.01 | 0.00 | 89 | 1020.2 |
| 20260902013427 | 56 | 282 | 2.0 | 3.0 | 0.00 | 0.01 | 0.00 | 88 | 1020.3 |
| 20260902012544 | 56 | 282 | 0.0 | 0.0 | 0.00 | 0.01 | 0.00 | 88 | 1020.2 |
| 20260902012043 | 56 | 282 | 0.0 | 0.0 | 0.00 | 0.01 | 0.00 | 88 | 1020.3 |
| 20260902011557 | 56 | 282 | 0.0 | 0.0 | 0.00 | 0.01 | 0.00 | 88 | 1020.3 |
| 20260902011045 | 56 | 282 | 0.0 | 2.0 | 0.00 | 0.01 | 0.00 | 89 | 1020.2 |
| 20260902010556 | 56 | 282 | 0.0 | 3.0 | 0.00 | 0.01 | 0.00 | 89 | 1020.3 |
| 20260902010056 | 56 | 282 | 2.0 | 3.0 | 0.00 | 0.01 | 0.00 | 89 | 1020.4 |
| 20260902005544 | 56 | 282 | 2.0 | 4.0 | 0.00 | 0.01 | 0.00 | 89 | 1020.3 |
| 20260902005325 | 55 | 283 | 1.0 | 4.0 | 0.00 | 0.01 | 0.00 | 89 | 1020.3 |
| 20260902005208 | 55 | 282 | 3.0 | 4.0 | 0.00 | 0.01 | 0.00 | 89 | 1020.4 |
| 20260902004042 | 55 | 295 | 2.0 | 4.0 | 0.00 | 0.01 | 0.00 | 88 | 1020.4 |
| 20260902003934 | 55 | 310 | 2.0 | 3.0 | 0.00 | 0.01 | 0.00 | 88 | 1020.5 |
| 20260902003426 | 55 | 327 | 0.0 | 0.0 | 0.00 | 0.01 | 0.00 | 87 | 1020.3 |
| 20260902002925 | 55 | 327 | 0.0 | 0.0 | 0.00 | 0.01 | 0.00 | 88 | 1020.3 |
| 20260902002041 | 55 | 327 | 0.0 | 0.0 | 0.00 | 0.01 | 0.00 | 88 | 1020.2 |
| 20260902001542 | 55 | 327 | 0.0 | 0.0 | 0.00 | 0.01 | 0.00 | 88 | 1020.3 |
| 20260902001040 | 55 | 327 | 0.0 | 0.0 | 0.00 | 0.01 | 0.00 | 87 | 1020.3 |
| 20260902000553 | 55 | 327 | 0.0 | 0.0 | 0.00 | 0.01 | 0.00 | 87 | 1020.4 |
| 20260902000055 | 55 | 327 | 0.0 | 0.0 | 0.00 | 0.01 | 0.00 | 87 | 1020.4 |
| 20260901235542 | 55 | 327 | 0.0 | 0.0 | 0.00 | 0.01 | 0.00 | 87 | 1020.4 |
| 20260901235040 | 55 | 327 | 0.0 | 0.0 | 0.00 | 0.01 | 0.00 | 87 | 1020.3 |
| 20260901234541 | 55 | 327 | 0.0 | 0.0 | 0.00 | 0.01 | 0.00 | 87 | 1020.3 |
| 20260901234423 | 55 | 327 | 0.0 | 0.0 | 0.00 | 0.01 | 0.00 | 87 | 1020.5 |
| 20260901233553 | 56 | 327 | 0.0 | 0.0 | 0.00 | 0.01 | 0.00 | 87 | 1020.3 |
| 20260901233039 | 56 | 327 | 0.0 | 0.0 | 0.00 | 0.01 | 0.00 | 87 | 1020.3 |
| 20260901232540 | 56 | 327 | 0.0 | 0.0 | 0.00 | 0.01 | 0.00 | 87 | 1020.4 |
| 20260901232429 | 56 | 327 | 0.0 | 0.0 | 0.00 | 0.01 | 0.00 | 87 | 1020.5 |
| 20260901231540 | 56 | 327 | 0.0 | 0.0 | 0.00 | 0.01 | 0.00 | 86 | 1020.6 |
| 20260901231039 | 56 | 327 | 0.0 | 0.0 | 0.00 | 0.01 | 0.00 | 86 | 1020.6 |
| 20260901230540 | 56 | 327 | 0.0 | 0.0 | 0.00 | 0.01 | 0.00 | 86 | 1020.7 |
| 20260901230052 | 56 | 327 | 0.0 | 0.0 | 0.00 | 0.01 | 0.00 | 86 | 1020.6 |
| 20260901225947 | 56 | 327 | 0.0 | 0.0 | 0.00 | 0.01 | 0.00 | 85 | 1020.6 |
| 20260901225037 | 56 | 327 | 0.0 | 0.0 | 0.00 | 0.01 | 0.00 | 85 | 1020.6 |
| 20260901224540 | 56 | 327 | 0.0 | 0.0 | 0.00 | 0.01 | 0.00 | 85 | 1020.6 |
| 20260901224053 | 57 | 327 | 0.0 | 0.0 | 0.00 | 0.01 | 0.00 | 84 | 1020.6 |
| 20260901223922 | 57 | 327 | 0.0 | 0.0 | 0.00 | 0.01 | 0.00 | 85 | 1020.6 |
| 20260901223038 | 57 | 327 | 0.0 | 0.0 | 0.00 | 0.01 | 0.00 | 84 | 1020.6 |
| 20260901222926 | 57 | 327 | 0.0 | 0.0 | 0.00 | 0.01 | 0.00 | 84 | 1020.7 |
| 20260901222038 | 58 | 327 | 0.0 | 0.0 | 0.00 | 0.01 | 0.00 | 84 | 1020.6 |
| 20260901221538 | 58 | 327 | 0.0 | 0.0 | 0.00 | 0.01 | 0.00 | 84 | 1020.5 |
| 20260901221040 | 58 | 327 | 0.0 | 0.0 | 0.00 | 0.01 | 0.00 | 84 | 1020.4 |
| 20260901220538 | 58 | 327 | 0.0 | 0.0 | 0.00 | 0.01 | 0.00 | 84 | 1020.6 |
| 20260901220051 | 58 | 327 | 0.0 | 0.0 | 0.00 | 0.01 | 0.00 | 84 | 1020.5 |
| 20260901215539 | 58 | 327 | 0.0 | 0.0 | 0.00 | 0.01 | 0.01 | 84 | 1020.6 |
| 20260901215038 | 58 | 329 | 0.0 | 0.0 | 0.00 | 0.01 | 0.01 | 83 | 1020.7 |
| 20260901214927 | 58 | 329 | 0.0 | 0.0 | 0.00 | 0.01 | 0.01 | 83 | 1020.7 |
| 20260901214037 | 59 | 329 | 0.0 | 0.0 | 0.00 | 0.01 | 0.01 | 83 | 1020.5 |
| 20260901213538 | 59 | 329 | 0.0 | 0.0 | 0.00 | 0.01 | 0.01 | 83 | 1020.7 |
| 20260901213037 | 59 | 329 | 0.0 | 0.0 | 0.00 | 0.01 | 0.01 | 83 | 1020.7 |
| 20260901212537 | 59 | 329 | 0.0 | 0.0 | 0.00 | 0.01 | 0.01 | 83 | 1020.7 |
| 20260901212038 | 59 | 329 | 0.0 | 0.0 | 0.00 | 0.01 | 0.01 | 83 | 1021.0 |
| 20260901211536 | 59 | 329 | 0.0 | 0.0 | 0.00 | 0.01 | 0.01 | 84 | 1021.0 |
| 20260901211425 | 59 | 329 | 0.0 | 0.0 | 0.00 | 0.01 | 0.01 | 83 | 1021.1 |
| 20260901210537 | 59 | 329 | 0.0 | 0.0 | 0.00 | 0.01 | 0.01 | 83 | 1021.1 |
| 20260901210051 | 59 | 329 | 0.0 | 0.0 | 0.00 | 0.01 | 0.01 | 82 | 1021.1 |
| 20260901205923 | 59 | 329 | 0.0 | 0.0 | 0.00 | 0.01 | 0.01 | 82 | 1021.1 |
| 20260901205036 | 59 | 329 | 0.0 | 0.0 | 0.00 | 0.01 | 0.01 | 82 | 1021.0 |
| 20260901204957 | 60 | 329 | 0.0 | 0.0 | 0.00 | 0.01 | 0.01 | 81 | 1021.1 |
| 20260901204551 | 59 | 329 | 0.0 | 0.0 | 0.00 | 0.01 | 0.01 | 82 | 1021.1 |
| 20260901204210 | 60 | 329 | 0.0 | 0.0 | 0.00 | 0.01 | 0.01 | 82 | 1020.9 |
| 20260901204120 | 60 | 329 | 0.0 | 0.0 | 0.00 | 0.01 | 0.01 | 82 | 1021.1 |
| 20260901202532 | 60 | 329 | 0.0 | 4.0 | 0.00 | 0.01 | 0.01 | 81 | 1021.0 |
| 20260901202033 | 60 | 329 | 0.0 | 4.0 | 0.00 | 0.01 | 0.01 | 80 | 1021.0 |
| 20260901201531 | 60 | 329 | 0.0 | 2.0 | 0.00 | 0.01 | 0.01 | 80 | 1021.0 |
| 20260901201032 | 60 | 329 | 0.0 | 3.0 | 0.00 | 0.01 | 0.01 | 79 | 1021.0 |
| 20260901200531 | 61 | 327 | 0.0 | 4.0 | 0.00 | 0.01 | 0.01 | 79 | 1021.0 |
| 20260901200031 | 61 | 326 | 2.0 | 4.0 | 0.00 | 0.01 | 0.01 | 79 | 1021.0 |
| 20260901195534 | 61 | 321 | 3.0 | 4.0 | 0.00 | 0.01 | 0.01 | 79 | 1020.9 |
| 20260901195032 | 61 | 323 | 2.0 | 4.0 | 0.00 | 0.01 | 0.01 | 79 | 1020.9 |
| 20260901194534 | 61 | 329 | 2.0 | 3.0 | 0.00 | 0.01 | 0.01 | 79 | 1020.9 |
| 20260901194031 | 61 | 330 | 2.0 | 4.0 | 0.00 | 0.01 | 0.01 | 78 | 1020.9 |
| 20260901193532 | 61 | 336 | 2.0 | 4.0 | 0.00 | 0.01 | 0.01 | 78 | 1020.8 |
| 20260901193419 | 61 | 336 | 1.0 | 3.0 | 0.00 | 0.01 | 0.01 | 77 | 1020.7 |
| 20260901192532 | 62 | 334 | 0.0 | 0.0 | 0.00 | 0.01 | 0.01 | 77 | 1020.5 |
| 20260901192031 | 62 | 334 | 0.0 | 0.0 | 0.00 | 0.01 | 0.01 | 76 | 1020.5 |
| 20260901191532 | 62 | 333 | 0.0 | 4.0 | 0.00 | 0.01 | 0.01 | 76 | 1020.6 |
| 20260901191032 | 62 | 333 | 1.0 | 5.0 | 0.00 | 0.01 | 0.01 | 75 | 1020.6 |
| 20260901190531 | 62 | 336 | 2.0 | 5.0 | 0.00 | 0.01 | 0.01 | 74 | 1020.7 |
| 20260901190046 | 63 | 341 | 3.0 | 5.0 | 0.00 | 0.01 | 0.01 | 74 | 1020.6 |
| 20260901185533 | 63 | 340 | 2.0 | 6.0 | 0.00 | 0.01 | 0.01 | 73 | 1020.5 |
| 20260901185422 | 63 | 348 | 3.0 | 6.0 | 0.00 | 0.01 | 0.01 | 73 | 1020.5 |
| 20260901184533 | 64 | 321 | 3.0 | 6.0 | 0.00 | 0.01 | 0.01 | 72 | 1020.6 |
| 20260901184033 | 64 | 331 | 1.0 | 4.0 | 0.00 | 0.01 | 0.01 | 72 | 1020.3 |
| 20260901183533 | 64 | 333 | 0.0 | 0.0 | 0.00 | 0.01 | 0.01 | 71 | 1020.3 |
| 20260901183417 | 65 | 331 | 0.0 | 3.0 | 0.00 | 0.01 | 0.01 | 70 | 1020.4 |
| 20260901182532 | 65 | 330 | 0.0 | 4.0 | 0.00 | 0.01 | 0.01 | 69 | 1020.5 |
| 20260901182417 | 65 | 323 | 0.0 | 6.0 | 0.00 | 0.01 | 0.01 | 68 | 1020.5 |
| 20260901181531 | 66 | 348 | 4.0 | 6.0 | 0.00 | 0.01 | 0.01 | 67 | 1020.5 |
| 20260901181030 | 66 | 331 | 3.0 | 6.0 | 0.00 | 0.01 | 0.01 | 68 | 1020.5 |
| 20260901180533 | 66 | 343 | 1.0 | 6.0 | 0.00 | 0.01 | 0.01 | 67 | 1020.4 |
| 20260901180031 | 66 | 336 | 2.0 | 6.0 | 0.00 | 0.01 | 0.01 | 67 | 1020.4 |
| 20260901175530 | 66 | 345 | 4.0 | 7.0 | 0.00 | 0.01 | 0.01 | 66 | 1020.5 |
| 20260901175033 | 67 | 326 | 3.0 | 7.0 | 0.00 | 0.01 | 0.01 | 66 | 1020.4 |
| 20260901174531 | 67 | 351 | 5.0 | 7.0 | 0.00 | 0.01 | 0.01 | 66 | 1020.5 |
| 20260901174043 | 67 | 340 | 3.0 | 7.0 | 0.00 | 0.01 | 0.01 | 67 | 1020.5 |
| 20260901173913 | 67 | 314 | 2.0 | 6.0 | 0.00 | 0.01 | 0.01 | 66 | 1020.6 |
| 20260901173031 | 67 | 313 | 2.0 | 7.0 | 0.00 | 0.01 | 0.01 | 64 | 1020.6 |
| 20260901172530 | 67 | 305 | 2.0 | 7.0 | 0.00 | 0.01 | 0.01 | 64 | 1020.5 |
| 20260901172031 | 68 | 348 | 3.0 | 6.0 | 0.00 | 0.01 | 0.01 | 64 | 1020.4 |
| 20260901171529 | 68 | 298 | 2.0 | 6.0 | 0.00 | 0.01 | 0.01 | 63 | 1020.4 |
| 20260901171029 | 69 | 312 | 3.0 | 6.0 | 0.00 | 0.01 | 0.01 | 63 | 1020.5 |
| 20260901170529 | 69 | 296 | 3.0 | 6.0 | 0.00 | 0.01 | 0.01 | 62 | 1020.6 |
| 20260901170032 | 69 | 289 | 3.0 | 7.0 | 0.00 | 0.01 | 0.01 | 63 | 1020.5 |
| 20260901165530 | 69 | 289 | 1.0 | 9.0 | 0.00 | 0.01 | 0.01 | 62 | 1020.4 |
| 20260901165030 | 69 | 265 | 4.0 | 9.0 | 0.00 | 0.01 | 0.01 | 62 | 1020.4 |
| 20260901164530 | 69 | 343 | 4.0 | 9.0 | 0.00 | 0.01 | 0.01 | 61 | 1020.5 |
| 20260901164029 | 69 | 357 | 4.0 | 9.0 | 0.00 | 0.01 | 0.01 | 61 | 1020.4 |
| 20260901163532 | 70 | 320 | 5.0 | 7.0 | 0.00 | 0.01 | 0.01 | 61 | 1020.3 |
| 20260901163030 | 70 | 286 | 5.0 | 9.0 | 0.00 | 0.01 | 0.01 | 59 | 1020.3 |
| 20260901162529 | 70 | 283 | 6.0 | 9.0 | 0.00 | 0.01 | 0.01 | 59 | 1020.2 |
| 20260901162029 | 70 | 317 | 4.0 | 7.0 | 0.00 | 0.01 | 0.01 | 60 | 1020.3 |
| 20260901161529 | 70 | 293 | 5.0 | 6.0 | 0.00 | 0.01 | 0.01 | 60 | 1020.3 |
| 20260901161030 | 70 | 336 | 2.0 | 9.0 | 0.00 | 0.01 | 0.01 | 59 | 1020.3 |
| 20260901160529 | 71 | 0 | 5.0 | 9.0 | 0.00 | 0.01 | 0.01 | 59 | 1020.3 |
| 20260901160028 | 71 | 0 | 4.0 | 7.0 | 0.00 | 0.01 | 0.01 | 61 | 1020.2 |
| 20260901155915 | 70 | 0 | 0.0 | 4.0 | 0.00 | 0.01 | 0.01 | 61 | 1020.3 |
| 20260901155030 | 69 | 329 | 1.0 | 4.0 | 0.00 | 0.01 | 0.01 | 62 | 1020.3 |
| 20260901154527 | 69 | 334 | 2.0 | 7.0 | 0.00 | 0.01 | 0.01 | 61 | 1020.3 |
| 20260901154027 | 70 | 296 | 3.0 | 11.0 | 0.00 | 0.01 | 0.01 | 59 | 1020.4 |
| 20260901153529 | 70 | 329 | 6.0 | 11.0 | 0.00 | 0.01 | 0.01 | 58 | 1020.3 |
| 20260901153028 | 71 | 334 | 5.0 | 12.0 | 0.00 | 0.01 | 0.01 | 59 | 1020.3 |
| 20260901152527 | 71 | 347 | 6.0 | 12.0 | 0.00 | 0.01 | 0.01 | 59 | 1020.3 |
| 20260901152039 | 71 | 296 | 5.0 | 10.0 | 0.00 | 0.01 | 0.01 | 59 | 1020.2 |
| 20260901151529 | 71 | 288 | 5.0 | 11.0 | 0.00 | 0.01 | 0.01 | 57 | 1020.3 |
| 20260901151027 | 72 | 326 | 7.0 | 11.0 | 0.00 | 0.01 | 0.01 | 58 | 1020.3 |
| 20260901150914 | 71 | 338 | 4.0 | 10.0 | 0.00 | 0.01 | 0.01 | 59 | 1020.3 |
| 20260901150027 | 71 | 336 | 3.0 | 11.0 | 0.00 | 0.01 | 0.01 | 60 | 1020.3 |
| 20260901145527 | 71 | 298 | 4.0 | 11.0 | 0.00 | 0.01 | 0.01 | 58 | 1020.3 |
| 20260901145026 | 72 | 344 | 5.0 | 9.0 | 0.00 | 0.01 | 0.01 | 58 | 1020.2 |
| 20260901144539 | 71 | 282 | 5.0 | 10.0 | 0.00 | 0.01 | 0.01 | 58 | 1020.2 |
| 20260901144027 | 70 | 292 | 4.0 | 10.0 | 0.00 | 0.01 | 0.01 | 59 | 1020.3 |
| 20260901143529 | 71 | 334 | 6.0 | 12.0 | 0.00 | 0.01 | 0.01 | 58 | 1020.3 |
| 20260901143028 | 72 | 316 | 6.0 | 12.0 | 0.00 | 0.01 | 0.01 | 57 | 1020.3 |
| 20260901142529 | 72 | 305 | 4.0 | 6.0 | 0.00 | 0.01 | 0.01 | 59 | 1020.3 |
| 20260901142029 | 71 | 333 | 2.0 | 6.0 | 0.00 | 0.01 | 0.01 | 60 | 1020.2 |
| 20260901141527 | 71 | 13 | 2.0 | 9.0 | 0.00 | 0.01 | 0.01 | 60 | 1020.3 |
| 20260901141308 | 73 | 265 | 5.0 | 7.0 | 0.00 | 0.01 | 0.01 | 56 | 1020.2 |
| 20260901141155 | 72 | 300 | 6.0 | 9.0 | 0.00 | 0.01 | 0.01 | 58 | 1020.3 |
| 20260901140028 | 72 | 314 | 4.0 | 10.0 | 0.00 | 0.01 | 0.01 | 58 | 1020.3 |
| 20260901135526 | 72 | 334 | 6.0 | 11.0 | 0.00 | 0.01 | 0.01 | 56 | 1020.3 |
| 20260901135028 | 71 | 310 | 6.0 | 12.0 | 0.00 | 0.01 | 0.01 | 58 | 1020.3 |
| 20260901134903 | 71 | 338 | 6.0 | 12.0 | 0.00 | 0.01 | 0.01 | 59 | 1020.4 |
| 20260901134024 | 71 | 338 | 6.0 | 14.0 | 0.00 | 0.01 | 0.01 | 58 | 1020.3 |
| 20260901133904 | 73 | 271 | 5.0 | 15.0 | 0.00 | 0.01 | 0.01 | 57 | 1020.4 |
| 20260901133026 | 73 | 264 | 9.0 | 15.0 | 0.00 | 0.01 | 0.01 | 58 | 1020.4 |
| 20260901132903 | 73 | 341 | 5.0 | 12.0 | 0.00 | 0.01 | 0.01 | 57 | 1020.3 |
| 20260901132025 | 72 | 355 | 4.0 | 13.0 | 0.00 | 0.01 | 0.01 | 59 | 1020.3 |
| 20260901131525 | 71 | 338 | 6.0 | 13.0 | 0.00 | 0.01 | 0.01 | 61 | 1020.3 |
| 20260901131023 | 72 | 341 | 3.0 | 9.0 | 0.00 | 0.01 | 0.01 | 57 | 1020.3 |
| 20260901130527 | 73 | 16 | 5.0 | 11.0 | 0.00 | 0.01 | 0.01 | 57 | 1020.4 |
| 20260901130408 | 73 | 336 | 7.0 | 11.0 | 0.00 | 0.01 | 0.01 | 56 | 1020.4 |
| 20260901125523 | 73 | 238 | 5.0 | 10.0 | 0.00 | 0.01 | 0.01 | 59 | 1020.3 |
| 20260901125024 | 72 | 252 | 2.0 | 10.0 | 0.00 | 0.01 | 0.01 | 59 | 1020.3 |
| 20260901124523 | 71 | 305 | 4.0 | 10.0 | 0.00 | 0.01 | 0.01 | 61 | 1020.4 |
| 20260901124024 | 71 | 319 | 4.0 | 14.0 | 0.00 | 0.01 | 0.01 | 61 | 1020.4 |
| 20260901123523 | 72 | 313 | 7.0 | 16.0 | 0.00 | 0.01 | 0.01 | 61 | 1020.4 |
| 20260901123025 | 72 | 329 | 7.0 | 16.0 | 0.00 | 0.01 | 0.01 | 58 | 1020.4 |
| 20260901122523 | 71 | 288 | 6.0 | 12.0 | 0.00 | 0.01 | 0.01 | 62 | 1020.4 |
| 20260901122023 | 71 | 343 | 6.0 | 11.0 | 0.00 | 0.01 | 0.01 | 60 | 1020.4 |
| 20260901121523 | 70 | 305 | 4.0 | 12.0 | 0.00 | 0.01 | 0.01 | 60 | 1020.5 |
| 20260901121021 | 71 | 240 | 7.0 | 13.0 | 0.00 | 0.01 | 0.01 | 57 | 1020.5 |
| 20260901120522 | 72 | 306 | 7.0 | 13.0 | 0.00 | 0.01 | 0.01 | 57 | 1020.6 |
| 20260901120024 | 72 | 326 | 7.0 | 13.0 | 0.00 | 0.01 | 0.01 | 59 | 1020.6 |
| 20260901115522 | 71 | 351 | 3.0 | 13.0 | 0.00 | 0.01 | 0.01 | 60 | 1020.5 |
| 20260901115023 | 70 | 221 | 6.0 | 13.0 | 0.00 | 0.01 | 0.01 | 64 | 1020.4 |
| 20260901114858 | 68 | 0 | 5.0 | 10.0 | 0.00 | 0.01 | 0.01 | 65 | 1020.6 |
| 20260901114022 | 68 | 282 | 6.0 | 10.0 | 0.00 | 0.01 | 0.01 | 66 | 1020.6 |
| 20260901113521 | 68 | 303 | 5.0 | 13.0 | 0.00 | 0.01 | 0.01 | 66 | 1020.5 |
| 20260901113021 | 69 | 354 | 8.0 | 13.0 | 0.00 | 0.01 | 0.01 | 63 | 1020.6 |
| 20260901112524 | 70 | 330 | 7.0 | 12.0 | 0.00 | 0.01 | 0.01 | 63 | 1020.6 |
| 20260901112021 | 70 | 275 | 5.0 | 11.0 | 0.00 | 0.01 | 0.01 | 64 | 1020.4 |
| 20260901111522 | 69 | 0 | 6.0 | 12.0 | 0.00 | 0.01 | 0.01 | 65 | 1020.5 |
| 20260901111020 | 69 | 309 | 6.0 | 12.0 | 0.00 | 0.01 | 0.01 | 63 | 1020.4 |
| 20260901110521 | 70 | 321 | 4.0 | 11.0 | 0.00 | 0.01 | 0.01 | 65 | 1020.6 |
| 20260901110021 | 71 | 326 | 4.0 | 14.0 | 0.00 | 0.01 | 0.01 | 63 | 1020.5 |
| 20260901105903 | 73 | 329 | 7.0 | 14.0 | 0.00 | 0.01 | 0.01 | 60 | 1020.4 |
| 20260901105358 | 72 | 238 | 4.0 | 11.0 | 0.00 | 0.01 | 0.01 | 65 | 1020.4 |
| 20260901104906 | 72 | 350 | 4.0 | 14.0 | 0.00 | 0.01 | 0.01 | 64 | 1020.4 |
| 20260901104022 | 72 | 279 | 8.0 | 14.0 | 0.00 | 0.01 | 0.01 | 63 | 1020.4 |
| 20260901103520 | 71 | 262 | 7.0 | 14.0 | 0.00 | 0.01 | 0.01 | 63 | 1020.4 |
| 20260901103021 | 71 | 302 | 6.0 | 19.0 | 0.00 | 0.01 | 0.01 | 64 | 1020.5 |
| 20260901102521 | 71 | 269 | 12.0 | 19.0 | 0.00 | 0.01 | 0.01 | 62 | 1020.3 |
| 20260901102021 | 71 | 34 | 5.0 | 11.0 | 0.00 | 0.01 | 0.01 | 66 | 1020.3 |
| 20260901101521 | 70 | 233 | 5.0 | 13.0 | 0.00 | 0.01 | 0.01 | 67 | 1020.3 |
| 20260901101358 | 69 | 269 | 5.0 | 13.0 | 0.00 | 0.01 | 0.01 | 69 | 1020.4 |
| 20260901100520 | 68 | 296 | 3.0 | 9.0 | 0.00 | 0.01 | 0.01 | 69 | 1020.5 |
| 20260901100019 | 69 | 306 | 4.0 | 10.0 | 0.00 | 0.01 | 0.01 | 69 | 1020.6 |
| 20260901095520 | 71 | 295 | 6.0 | 12.0 | 0.00 | 0.01 | 0.01 | 72 | 1020.5 |
| 20260901095032 | 71 | 276 | 7.0 | 12.0 | 0.00 | 0.01 | 0.01 | 72 | 1020.5 |
| 20260901094521 | 70 | 276 | 6.0 | 12.0 | 0.00 | 0.01 | 0.01 | 72 | 1020.2 |
| 20260901094018 | 71 | 290 | 8.0 | 12.0 | 0.00 | 0.02 | 0.01 | 70 | 1020.3 |
| 20260901093531 | 70 | 223 | 8.0 | 13.0 | 0.00 | 0.02 | 0.01 | 71 | 1020.2 |
| 20260901093018 | 70 | 274 | 6.0 | 13.0 | 0.00 | 0.06 | 0.01 | 73 | 1020.2 |
| 20260901092530 | 70 | 226 | 8.0 | 13.0 | 0.00 | 0.08 | 0.01 | 75 | 1020.1 |
| 20260901092257 | 68 | 254 | 4.0 | 7.0 | 0.00 | 0.08 | 0.01 | 79 | 1020.0 |
| 20260901092145 | 69 | 226 | 6.0 | 10.0 | 0.00 | 0.08 | 0.01 | 75 | 1020.1 |
| 20260901091017 | 67 | 285 | 1.0 | 7.0 | 0.00 | 0.08 | 0.01 | 80 | 1020.2 |
| 20260901090518 | 66 | 286 | 4.0 | 10.0 | 0.00 | 0.08 | 0.01 | 81 | 1020.2 |
| 20260901090018 | 65 | 259 | 4.0 | 11.0 | 0.00 | 0.08 | 0.01 | 82 | 1020.2 |
| 20260901085518 | 65 | 255 | 8.0 | 11.0 | 0.00 | 0.08 | 0.01 | 83 | 1020.1 |
| 20260901085017 | 65 | 251 | 6.0 | 9.0 | 0.00 | 0.08 | 0.01 | 84 | 1020.2 |
| 20260901084518 | 65 | 283 | 3.0 | 7.0 | 0.00 | 0.08 | 0.01 | 84 | 1020.2 |
| 20260901084018 | 65 | 261 | 3.0 | 7.0 | 0.00 | 0.08 | 0.01 | 85 | 1020.1 |
| 20260901083518 | 65 | 262 | 3.0 | 9.0 | 0.00 | 0.08 | 0.01 | 87 | 1020.1 |
| 20260901083017 | 65 | 230 | 5.0 | 9.0 | 0.00 | 0.08 | 0.01 | 88 | 1020.0 |
| 20260901082901 | 64 | 261 | 6.0 | 9.0 | 0.01 | 0.08 | 0.01 | 88 | 1019.9 |
| 20260901082152 | 63 | 217 | 2.0 | 7.0 | 0.01 | 0.08 | 0.01 | 90 | 1019.8 |
| 20260901082107 | 63 | 233 | 5.0 | 7.0 | 0.01 | 0.08 | 0.01 | 90 | 1019.8 |
| 20260901081645 | 63 | 248 | 4.0 | 7.0 | 0.01 | 0.08 | 0.01 | 89 | 1019.8 |
| 20260901080858 | 63 | 251 | 5.0 | 7.0 | 0.01 | 0.08 | 0.01 | 90 | 1019.7 |
| 20260901080247 | 62 | 259 | 2.0 | 4.0 | 0.01 | 0.07 | 0.01 | 90 | 1019.6 |
| 20260901080139 | 62 | 265 | 5.0 | 7.0 | 0.01 | 0.08 | 0.01 | 90 | 1019.7 |
| 20260901075015 | 0 | 257 | 0.0 | 0.0 | 0.01 | 0.07 | 0.01 | 1019.5 | |
| 20260901074528 | 62 | 257 | 0.0 | 0.0 | 0.01 | 0.07 | 0.01 | 90 | 1019.4 |
| 20260901074013 | 0 | 257 | 0.0 | 1.0 | 0.01 | 0.07 | 0.01 | 1019.4 | |
| 20260901073512 | 0 | 257 | 0.0 | 3.0 | 0.01 | 0.07 | 0.01 | 1019.3 | |
| 20260901073010 | 0 | 257 | 1.0 | 6.0 | 0.01 | 0.07 | 0.00 | 1019.4 | |
| 20260901072511 | 0 | 257 | 3.0 | 11.0 | 0.00 | 0.07 | 0.00 | 1019.4 | |
| 20260901072009 | 0 | 276 | 6.0 | 11.0 | 0.00 | 0.07 | 0.00 | 1019.5 | |
| 20260901071843 | 0 | 272 | 4.0 | 7.0 | 0.00 | 0.07 | 0.00 | 1019.4 | |
| 20260901071009 | 61 | 251 | 5.0 | 9.0 | 0.00 | 0.07 | 0.00 | 90 | 1019.3 |